Home > Weather > Zárate > Past weeks

Flag for Argentina Weather for the Past 2 Weeks in Zárate, Buenos Aires, Argentina

Now
46 °F

Clear.


Feels Like: 44 °F
Forecast: 39 / 57 °F
Wind: 5 mph from Southwest

Location: Buenos Aires Airport

Current Time: Apr 30, 2016 at 6:10:59 AM

Latest Report: Apr 30, 2016 at 5:00 AM


Visibility: 10 mi

Pressure: 30.30 "Hg

Humidity: 76%

Dew Point: 39 °F

Location of ZárateLocation

Historic Weather in Zárate — Graph

°F

Zárate Temperature Yesterday

Maximum temperature yesterday: 59 °F (at 1:00 PM)
Minimum temperature yesterday: 48 °F (at 4:00 AM)
Average temperature yesterday: 54 °F

High & Low Weather Summary for the Past Weeks

 TemperatureHumidityPressure
High79 °F (Apr 16, 1:00 PM)100% (Apr 15, 6:00 AM)30.30 "Hg (Apr 15, 6:00 AM)
Low43 °F (Apr 27, 6:00 AM)29% (Apr 21, 3:00 PM)29.53 "Hg (Apr 15, 6:00 PM)
Average60 °F76%29.95 "Hg
* Reported Apr 15 5:00 AM — Apr 30 5:00 AM, Zárate, Weather by CustomWeather, © 2016

Note: Actual official high and low records may vary slightly from our data, if they occured in-between our weather recording intervals... More about our weather records

Advertising

Zárate Weather History for the Previous 24 Hours

Scroll right to see more
 ConditionsComfort  
Time TempWeatherWind HumidityBarometerVisibility
5:00 AM
Sat, Apr 30
46 °FClear.5 mph76%30.30 "Hg10 mi
4:00 AM46 °FClear.5 mph76%30.30 "Hg10 mi
2:00 AM48 °FClear.8 mph76%30.30 "Hg10 mi
1:00 AM50 °FClear.8 mph71%30.30 "Hg10 mi
12:00 AM52 °FClear.13 mph67%30.30 "Hg10 mi
11:00 PM
Fri, Apr 29
52 °FClear.12 mph67%30.30 "Hg10 mi
10:00 PM54 °FClear.12 mph63%30.30 "Hg10 mi
9:00 PM55 °FClear.12 mph55%30.30 "Hg10 mi
8:00 PM55 °FClear.7 mph59%30.27 "Hg10 mi
7:00 PM57 °FClear.8 mph55%30.27 "Hg10 mi
6:00 PM57 °FPassing clouds.13 mph48%30.24 "HgN/A
5:00 PM59 °FScattered clouds.14 mph48%30.24 "HgN/A
4:00 PM59 °FScattered clouds.12 mph48%30.24 "HgN/A
3:00 PM59 °FScattered clouds.12 mph48%30.24 "HgN/A
2:00 PM59 °FBroken clouds.10 mph51%30.24 "HgN/A
1:00 PM59 °FBroken clouds.14 mph63%30.24 "HgN/A
12:00 PM55 °FSunny.12 mph72%30.27 "Hg10 mi
11:00 AM55 °FPassing clouds.12 mph67%30.27 "HgN/A
10:00 AM54 °FSunny.9 mph67%30.24 "Hg10 mi
9:00 AM50 °FSunny.10 mph67%30.24 "Hg10 mi
8:00 AM50 °FSunny.8 mph67%30.21 "Hg10 mi
7:00 AM50 °FSunny.10 mph71%30.21 "Hg10 mi
6:00 AM50 °FClear.6 mph71%30.21 "Hg10 mi
Weather by CustomWeather, © 2016

See weather overviewHow to use our weather pages